Location: Владивосток
(43.1151°N, 131.8856°E)
Time: 20:02:22
(UTC+10:00)

LO-87 - Visible Passes

Search period start: 30 June 2022 00:00
Search period end: 10 July 2022 00:00
Orbit: 454 x 468 km, 97.4° (Epoch: 29 June)

Date Brightness Start Highest point End Pass type
(mag) Time Alt. Az. Time Alt. Az. Time Alt. Az.
30 Jun ? 01:06:37 39° NW 01:06:37 39° NW 01:09:10 10° NNW visible
01 Jul ? 00:34:44 51° NE 00:34:44 51° NE 00:37:38 10° N visible
02 Jul ? 00:02:50 23° ENE 00:02:50 23° ENE 00:05:34 10° NNE visible
02 Jul ? 01:36:43 18° WNW 01:36:43 18° WNW 01:38:20 10° NW visible
02 Jul ? 23:31:00 10° ENE 23:31:28 10° ENE 23:31:55 10° NE visible
03 Jul ? 01:04:48 40° NW 01:04:48 40° NW 01:07:20 10° NNW visible
04 Jul ? 00:32:52 48° NE 00:32:52 48° NE 00:35:44 10° N visible
05 Jul ? 00:00:56 22° ENE 00:00:56 22° ENE 00:03:35 10° NNE visible
05 Jul ? 01:34:48 19° WNW 01:34:48 19° WNW 01:36:28 10° NW visible
06 Jul ? 01:02:51 41° NW 01:02:51 41° NW 01:05:23 10° NNW visible
07 Jul ? 00:30:52 44° NE 00:30:52 44° NE 00:33:41 10° N visible
07 Jul ? 23:58:53 21° ENE 23:58:53 21° ENE 00:01:25 10° NNE visible
08 Jul ? 01:32:45 20° WNW 01:32:45 20° WNW 01:34:27 10° NW visible
09 Jul ? 01:00:44 42° NW 01:00:44 42° NW 01:03:15 10° NNW visible
